Regional Weather Roundup
Issued by NWS

Home | Current Version | Previous Version | Graphics & Text | Print | Product List | Glossary On
Versions: 1 2 3 4 5 6 7 8 9 10 11 12 13 14 15 16 17 18 19 20 21 22 23 24 25 26 27 28 29 30 31 32 33 34 35 36 37 38 39 40 41 42 43 44 45 46 47 48 49 50
000
ASUS43 KOAX 021502
RWRNE

WEATHER ROUNDUP FOR NEBRASKA
NATIONAL WEATHER SERVICE OMAHA NE
900 AM CST FRI DEC 02 2016

NOTES: SATELLITE DATA IS BEING USED TO AUGMENT CLOUD COVER ABOVE
       12000 FEET.
       "FAIR" INDICATES FEW OR NO CLOUDS BELOW 12,000 FEET WITH NO
       SIGNIFICANT WEATHER AND/OR OBSTRUCTIONS TO VISIBILITY.

  * THESE STATIONS DO NOT REPORT WEATHER SUCH AS RAIN...SNOW OR FOG.

NEZ001>004-019>022-054>056-021600-
NEBRASKA PANHANDLE

CITY           SKY/WX    TMP DP  RH WIND       PRES   REMARKS
SCOTTSBLUFF    CLEAR     18  13  80 NW6       30.18R WCI  10
ALLIANCE       CLEAR     16  12  84 W3        30.16R
CHADRON        CLEAR     23  19  85 SW5       30.18R WCI  17
KIMBALL        CLEAR     21  20  96 NW6       30.15R WCI  13
SIDNEY         CLEAR     21  16  81 NW5       30.17R WCI  15
$$

NEZ057>060-069>072-079>082-021600-
SOUTHWEST NEBRASKA

CITY           SKY/WX    TMP DP  RH WIND       PRES   REMARKS
NORTH PLATTE   CLEAR     20  15  81 NW8       30.21R WCI  10
IMPERIAL       CLEAR     23  15  71 NW5       30.19R WCI  17
LEXINGTON      SUNNY     22  19  87 NW5       30.23R WCI  15
MCCOOK         SUNNY     21  14  74 W3        30.21R
OGALLALA       CLEAR     19  16  85 CALM      30.20R
$$

NEZ005>010-023>029-035>040-094-021600-
NORTH CENTRAL NEBRASKA

CITY           SKY/WX    TMP DP  RH WIND       PRES   REMARKS
VALENTINE      CLOUDY    25  21  85 CALM      30.20R
AINSWORTH      CLOUDY    25  24  96 NW5       30.20R WCI  19
BROKEN BOW     SUNNY     26  24  92 CALM      30.21R
O`NEILL        PTSUNNY   26  25  94 NW6       30.22R WCI  20
ORD            SUNNY     23  20  88 CALM      30.23R
THEDFORD       CLEAR     23  21  93 CALM      30.20R
$$

NEZ041-046>049-061>064-073>077-083>087-021600-
SOUTH CENTRAL NEBRASKA

CITY           SKY/WX    TMP DP  RH WIND       PRES   REMARKS
GRAND ISLAND   SUNNY     26  23  88 CALM      30.24R
AURORA         SUNNY     26  25  96 CALM      30.25R
HASTINGS       SUNNY     27  22  81 N5        30.25R WCI  22
HEBRON         SUNNY     24  22  92 CALM      30.25R
HOLDREGE       SUNNY     23  21  91 N5        30.22R WCI  17
KEARNEY *      SUNNY     21  18  86 NW3       30.23R
YORK           SUNNY     27  25  93 N3        30.25R
$$

NEZ011>018-030>034-042>045-021600-
NORTHEAST NEBRASKA

CITY           SKY/WX    TMP DP  RH WIND       PRES   REMARKS
NORFOLK        MOSUNNY   26  23  88 W7        30.22R WCI  18
ALBION         SUNNY     25  23  91 CALM      30.24R
BLAIR          SUNNY     31  28  90 CALM      30.23R
FREMONT        SUNNY     29  28  93 CALM      30.25R
TEKAMAH        SUNNY     32  28  85 CALM      30.24R
WAYNE          CLOUDY    29  28  95 CALM      30.23R
$$

NEZ050>053-065>068-078-088>093-021600-
SOUTHEAST NEBRASKA

CITY           SKY/WX    TMP DP  RH WIND       PRES   REMARKS
LINCOLN        SUNNY     26  24  92 CALM      30.27R
OMAHA EPPLEY   MOSUNNY   32  28  85 CALM      30.26R
BEATRICE       SUNNY     25  23  91 CALM      30.25R
FALLS CITY     SUNNY     26  23  88 N3        30.25S
NEBRASKA CITY  SUNNY     32  27  80 CALM      30.26R
PLATTSMOUTH    SUNNY     30  26  83 W3        30.25R
$$

NEZ044-045-051>053-067-021600-
OMAHA AREA

CITY           SKY/WX    TMP DP  RH WIND       PRES   REMARKS
OMAHA EPPLEY   MOSUNNY   32  28  85 CALM      30.26R
BLAIR          SUNNY     31  28  90 CALM      30.23R
FREMONT        SUNNY     29  28  93 CALM      30.25R
MILLARD        SUNNY     32  28  86 CALM      30.26R
OFFUTT AFB     SUNNY     30  30  99 CALM      30.25R
PLATTSMOUTH    SUNNY     30  26  83 W3        30.25R
WAHOO          FAIR      30  27  86 NW5       30.25R WCI  26
$$




USA.gov is the U.S. government's official web portal to all federal, state and local government web resources and services.